Year,Month,Day,Hour,Minute,Value (Times are PST for temperature in C)
2016,05,31,00,00,13.40
2016,05,31,00,01,13.40
2016,05,31,00,02,13.30
2016,05,31,00,03,13.30
2016,05,31,00,04,13.30
2016,05,31,00,05,13.30
2016,05,31,00,06,13.30
2016,05,31,00,07,13.30
2016,05,31,00,08,13.30
2016,05,31,00,09,13.30
2016,05,31,00,10,13.30
2016,05,31,00,11,13.30
2016,05,31,00,12,13.30
2016,05,31,00,13,13.30
2016,05,31,00,14,13.30
2016,05,31,00,15,13.30
2016,05,31,00,16,13.30
2016,05,31,00,17,13.30
2016,05,31,00,18,13.30
2016,05,31,00,19,13.30
2016,05,31,00,20,13.30
2016,05,31,00,21,13.30
2016,05,31,00,22,13.30
2016,05,31,00,23,13.30
2016,05,31,00,24,13.30
2016,05,31,00,25,13.30
2016,05,31,00,26,13.30
2016,05,31,00,27,13.30
2016,05,31,00,28,13.30
2016,05,31,00,29,13.30
2016,05,31,00,30,13.30
2016,05,31,00,31,13.30
2016,05,31,00,32,13.20
2016,05,31,00,33,13.20
2016,05,31,00,34,13.20
2016,05,31,00,35,13.20
2016,05,31,00,36,13.20
2016,05,31,00,37,13.20
2016,05,31,00,38,13.20
2016,05,31,00,39,13.20
2016,05,31,00,40,13.20
2016,05,31,00,41,13.10
2016,05,31,00,42,13.10
2016,05,31,00,43,13.10
2016,05,31,00,44,13.10
2016,05,31,00,45,13.10
2016,05,31,00,46,13.10
2016,05,31,00,47,13.10
2016,05,31,00,48,13.10
2016,05,31,00,49,13.10
2016,05,31,00,50,13.00
2016,05,31,00,51,13.00
2016,05,31,00,52,13.00
2016,05,31,00,53,13.00
2016,05,31,00,54,13.00
2016,05,31,00,55,13.00
2016,05,31,00,56,13.00
2016,05,31,00,57,13.00
2016,05,31,00,58,13.00
2016,05,31,00,59,12.90
2016,05,31,01,00,12.90
2016,05,31,01,01,12.90
2016,05,31,01,02,12.90
2016,05,31,01,03,12.90
2016,05,31,01,04,12.90
2016,05,31,01,05,12.90
2016,05,31,01,06,12.80
2016,05,31,01,07,12.80
2016,05,31,01,08,12.80
2016,05,31,01,09,12.80
2016,05,31,01,10,12.80
2016,05,31,01,11,12.80
2016,05,31,01,12,12.80
2016,05,31,01,13,12.80
2016,05,31,01,14,12.80
2016,05,31,01,15,12.80
2016,05,31,01,16,12.80
2016,05,31,01,17,12.70
2016,05,31,01,18,12.70
2016,05,31,01,19,12.70
2016,05,31,01,20,12.70
2016,05,31,01,21,12.70
2016,05,31,01,22,12.70
2016,05,31,01,23,12.70
2016,05,31,01,24,12.70
2016,05,31,01,25,12.70
2016,05,31,01,26,12.70
2016,05,31,01,27,12.70
2016,05,31,01,28,12.60
2016,05,31,01,29,12.60
2016,05,31,01,30,12.60
2016,05,31,01,31,12.60
2016,05,31,01,32,12.60
2016,05,31,01,33,12.60
2016,05,31,01,34,12.60
2016,05,31,01,35,12.60
2016,05,31,01,36,12.50
2016,05,31,01,37,12.50
2016,05,31,01,38,12.50
2016,05,31,01,39,12.50
2016,05,31,01,40,12.40
2016,05,31,01,41,12.40
2016,05,31,01,42,12.40
2016,05,31,01,43,12.40
2016,05,31,01,44,12.30
2016,05,31,01,45,12.30
2016,05,31,01,46,12.30
2016,05,31,01,47,12.30
2016,05,31,01,48,12.20
2016,05,31,01,49,12.20
2016,05,31,01,50,12.20
2016,05,31,01,51,12.20
2016,05,31,01,52,12.20
2016,05,31,01,53,12.10
2016,05,31,01,54,12.10
2016,05,31,01,55,12.10
2016,05,31,01,56,12.10
2016,05,31,01,57,12.10
2016,05,31,01,58,12.10
2016,05,31,01,59,12.10
2016,05,31,02,00,12.00
2016,05,31,02,01,12.00
2016,05,31,02,02,12.00
2016,05,31,02,03,12.00
2016,05,31,02,04,12.00
2016,05,31,02,05,12.00
2016,05,31,02,06,12.00
2016,05,31,02,07,12.00
2016,05,31,02,08,11.90
2016,05,31,02,09,11.90
2016,05,31,02,10,11.90
2016,05,31,02,11,11.90
2016,05,31,02,12,11.90
2016,05,31,02,13,11.90
2016,05,31,02,14,11.90
2016,05,31,02,15,11.90
2016,05,31,02,16,11.90
2016,05,31,02,17,11.90
2016,05,31,02,18,11.80
2016,05,31,02,19,11.80
2016,05,31,02,20,11.80
2016,05,31,02,21,11.80
2016,05,31,02,22,11.80
2016,05,31,02,23,11.80
2016,05,31,02,24,11.80
2016,05,31,02,25,11.80
2016,05,31,02,26,11.70
2016,05,31,02,27,11.70
2016,05,31,02,28,11.70
2016,05,31,02,29,11.70
2016,05,31,02,30,11.70
2016,05,31,02,31,11.70
2016,05,31,02,32,11.70
2016,05,31,02,33,11.70
2016,05,31,02,34,11.70
2016,05,31,02,35,11.60
2016,05,31,02,36,11.60
2016,05,31,02,37,11.60
2016,05,31,02,38,11.60
2016,05,31,02,39,11.60
2016,05,31,02,40,11.60
2016,05,31,02,41,11.60
2016,05,31,02,42,11.60
2016,05,31,02,43,11.60
2016,05,31,02,44,11.60
2016,05,31,02,45,11.60
2016,05,31,02,46,11.60
2016,05,31,02,47,11.60
2016,05,31,02,48,11.60
2016,05,31,02,49,11.50
2016,05,31,02,50,11.50
2016,05,31,02,51,11.50
2016,05,31,02,52,11.50
2016,05,31,02,53,11.50
2016,05,31,02,54,11.50
2016,05,31,02,55,11.40
2016,05,31,02,56,11.40
2016,05,31,02,57,11.40
2016,05,31,02,58,11.40
2016,05,31,02,59,11.40
2016,05,31,03,00,11.40
2016,05,31,03,01,11.40
2016,05,31,03,02,11.40
2016,05,31,03,03,11.40
2016,05,31,03,04,11.40
2016,05,31,03,05,11.40
2016,05,31,03,06,11.40
2016,05,31,03,07,11.40
2016,05,31,03,08,11.40
2016,05,31,03,09,11.30
2016,05,31,03,10,11.30
2016,05,31,03,11,11.30
2016,05,31,03,12,11.30
2016,05,31,03,13,11.30
2016,05,31,03,14,11.30
2016,05,31,03,15,11.30
2016,05,31,03,16,11.30
2016,05,31,03,17,11.30
2016,05,31,03,18,11.30
2016,05,31,03,19,11.30
2016,05,31,03,20,11.30
2016,05,31,03,21,11.30
2016,05,31,03,22,11.30
2016,05,31,03,23,11.30
2016,05,31,03,24,11.30
2016,05,31,03,25,11.30
2016,05,31,03,26,11.30
2016,05,31,03,27,11.30
2016,05,31,03,28,11.30
2016,05,31,03,29,11.30
2016,05,31,03,30,11.30
2016,05,31,03,31,11.30
2016,05,31,03,32,11.30
2016,05,31,03,33,11.30
2016,05,31,03,34,11.30
2016,05,31,03,35,11.30
2016,05,31,03,36,11.30
2016,05,31,03,37,11.30
2016,05,31,03,38,11.30
2016,05,31,03,39,11.30
2016,05,31,03,40,11.30
2016,05,31,03,41,11.40
2016,05,31,03,42,11.30
2016,05,31,03,43,11.30
2016,05,31,03,44,11.30
2016,05,31,03,45,11.30
2016,05,31,03,46,11.30
2016,05,31,03,47,11.30
2016,05,31,03,48,11.30
2016,05,31,03,49,11.30
2016,05,31,03,50,11.30
2016,05,31,03,51,11.30
2016,05,31,03,52,11.30
2016,05,31,03,53,11.30
2016,05,31,03,54,11.30
2016,05,31,03,55,11.30
2016,05,31,03,56,11.30
2016,05,31,03,57,11.30
2016,05,31,03,58,11.30
2016,05,31,03,59,11.30
2016,05,31,04,00,11.30
2016,05,31,04,01,11.30
2016,05,31,04,02,11.30
2016,05,31,04,03,11.30
2016,05,31,04,04,11.30
2016,05,31,04,05,11.30
2016,05,31,04,06,11.30
2016,05,31,04,07,11.30
2016,05,31,04,08,11.30
2016,05,31,04,09,11.30
2016,05,31,04,10,11.30
2016,05,31,04,11,11.30
2016,05,31,04,12,11.30
2016,05,31,04,13,11.30
2016,05,31,04,14,11.30
2016,05,31,04,15,11.30
2016,05,31,04,16,11.30
2016,05,31,04,17,11.30
2016,05,31,04,18,11.30
2016,05,31,04,19,11.30
2016,05,31,04,20,11.30
2016,05,31,04,21,11.30
2016,05,31,04,22,11.30
2016,05,31,04,23,11.30
2016,05,31,04,24,11.30
2016,05,31,04,25,11.30
2016,05,31,04,26,11.30
2016,05,31,04,27,11.30
2016,05,31,04,28,11.30
2016,05,31,04,29,11.30
2016,05,31,04,30,11.30
2016,05,31,04,31,11.30
2016,05,31,04,32,11.30
2016,05,31,04,33,11.20
2016,05,31,04,34,11.20
2016,05,31,04,35,11.20
2016,05,31,04,36,11.20
2016,05,31,04,37,11.20
2016,05,31,04,38,11.20
2016,05,31,04,39,11.20
2016,05,31,04,40,11.20
2016,05,31,04,41,11.20
2016,05,31,04,42,11.20
2016,05,31,04,43,11.20
2016,05,31,04,44,11.10
2016,05,31,04,45,11.10
2016,05,31,04,46,11.10
2016,05,31,04,47,11.10
2016,05,31,04,48,11.10
2016,05,31,04,49,11.10
2016,05,31,04,50,11.10
2016,05,31,04,51,11.10
2016,05,31,04,52,11.10
2016,05,31,04,53,11.10
2016,05,31,04,54,11.10
2016,05,31,04,55,11.10
2016,05,31,04,56,11.10
2016,05,31,04,57,11.10
2016,05,31,04,58,11.10
2016,05,31,04,59,11.10
2016,05,31,05,00,11.10
2016,05,31,05,01,11.10
2016,05,31,05,02,11.10
2016,05,31,05,03,11.10
2016,05,31,05,04,11.10
2016,05,31,05,05,11.10
2016,05,31,05,06,11.00
2016,05,31,05,07,11.00
2016,05,31,05,08,11.00
2016,05,31,05,09,11.00
2016,05,31,05,10,11.00
2016,05,31,05,11,11.00
2016,05,31,05,12,10.90
2016,05,31,05,13,10.90
2016,05,31,05,14,10.90
2016,05,31,05,15,10.90
2016,05,31,05,16,10.90
2016,05,31,05,17,10.90
2016,05,31,05,18,11.00
2016,05,31,05,19,11.00
2016,05,31,05,20,11.00
2016,05,31,05,21,11.00
2016,05,31,05,22,11.00
2016,05,31,05,23,11.00
2016,05,31,05,24,11.00
2016,05,31,05,25,11.00
2016,05,31,05,26,11.00
2016,05,31,05,27,11.00
2016,05,31,05,28,11.00
2016,05,31,05,29,10.90
2016,05,31,05,30,10.90
2016,05,31,05,31,10.90
2016,05,31,05,32,10.90
2016,05,31,05,33,10.90
2016,05,31,05,34,10.90
2016,05,31,05,35,10.90
2016,05,31,05,36,10.90
2016,05,31,05,37,10.90
2016,05,31,05,38,10.90
2016,05,31,05,39,10.90
2016,05,31,05,40,10.90
2016,05,31,05,41,10.80
2016,05,31,05,42,10.80
2016,05,31,05,43,10.80
2016,05,31,05,44,10.80
2016,05,31,05,45,10.80
2016,05,31,05,46,10.80
2016,05,31,05,47,10.80
2016,05,31,05,48,10.80
2016,05,31,05,49,10.80
2016,05,31,05,50,10.80
2016,05,31,05,51,10.80
2016,05,31,05,52,10.80
2016,05,31,05,53,10.80
2016,05,31,05,54,10.80
2016,05,31,05,55,10.80
2016,05,31,05,56,10.80
2016,05,31,05,57,10.80
2016,05,31,05,58,10.80
2016,05,31,05,59,10.80
2016,05,31,06,00,10.90
2016,05,31,06,01,10.90
2016,05,31,06,02,10.90
2016,05,31,06,03,10.90
2016,05,31,06,04,11.00
2016,05,31,06,05,11.00
2016,05,31,06,06,11.00
2016,05,31,06,07,11.00
2016,05,31,06,08,11.00
2016,05,31,06,09,11.10
2016,05,31,06,10,11.10
2016,05,31,06,11,11.10
2016,05,31,06,12,11.10
2016,05,31,06,13,11.10
2016,05,31,06,14,11.20
2016,05,31,06,15,11.20
2016,05,31,06,16,11.20
2016,05,31,06,17,11.20
2016,05,31,06,18,11.20
2016,05,31,06,19,11.20
2016,05,31,06,20,11.20
2016,05,31,06,21,11.20
2016,05,31,06,22,11.20
2016,05,31,06,23,11.20
2016,05,31,06,24,11.20
2016,05,31,06,25,11.20
2016,05,31,06,26,11.20
2016,05,31,06,27,11.30
2016,05,31,06,28,11.30
2016,05,31,06,29,11.40
2016,05,31,06,30,11.40
2016,05,31,06,31,11.40
2016,05,31,06,32,11.40
2016,05,31,06,33,11.40
2016,05,31,06,34,11.50
2016,05,31,06,35,11.50
2016,05,31,06,36,11.60
2016,05,31,06,37,11.60
2016,05,31,06,38,11.60
2016,05,31,06,39,11.60
2016,05,31,06,40,11.60
2016,05,31,06,41,11.60
2016,05,31,06,42,11.70
2016,05,31,06,43,11.70
2016,05,31,06,44,11.80
2016,05,31,06,45,11.80
2016,05,31,06,46,11.80
2016,05,31,06,47,11.90
2016,05,31,06,48,11.90
2016,05,31,06,49,12.00
2016,05,31,06,50,12.00
2016,05,31,06,51,12.10
2016,05,31,06,52,12.10
2016,05,31,06,53,12.10
2016,05,31,06,54,12.10
2016,05,31,06,55,12.10
2016,05,31,06,56,12.20
2016,05,31,06,57,12.20
2016,05,31,06,58,12.20
2016,05,31,06,59,12.30
2016,05,31,07,00,12.30
2016,05,31,07,01,12.30
2016,05,31,07,02,12.40
2016,05,31,07,03,12.40
2016,05,31,07,04,12.50
2016,05,31,07,05,12.60
2016,05,31,07,06,12.60
2016,05,31,07,07,12.60
2016,05,31,07,08,12.70
2016,05,31,07,09,12.70
2016,05,31,07,10,12.70
2016,05,31,07,11,12.80
2016,05,31,07,12,12.80
2016,05,31,07,13,12.90
2016,05,31,07,14,12.90
2016,05,31,07,15,12.90
2016,05,31,07,16,13.00
2016,05,31,07,17,13.10
2016,05,31,07,18,13.10
2016,05,31,07,19,13.20
2016,05,31,07,20,13.20
2016,05,31,07,21,13.30
2016,05,31,07,22,13.40
2016,05,31,07,23,13.50
2016,05,31,07,24,13.60
2016,05,31,07,25,13.70
2016,05,31,07,26,13.80
2016,05,31,07,27,13.90
2016,05,31,07,28,13.90
2016,05,31,07,29,14.00
2016,05,31,07,30,14.00
2016,05,31,07,31,14.10
2016,05,31,07,32,14.20
2016,05,31,07,33,14.20
2016,05,31,07,34,14.20
2016,05,31,07,35,14.20
2016,05,31,07,36,14.30
2016,05,31,07,37,14.30
2016,05,31,07,38,14.30
2016,05,31,07,39,14.30
2016,05,31,07,40,14.30
2016,05,31,07,41,14.40
2016,05,31,07,42,14.40
2016,05,31,07,43,14.40
2016,05,31,07,44,14.40
2016,05,31,07,45,14.40
2016,05,31,07,46,14.40
2016,05,31,07,47,14.50
2016,05,31,07,48,14.60
2016,05,31,07,49,14.60
2016,05,31,07,50,14.70
2016,05,31,07,51,14.70
2016,05,31,07,52,14.70
2016,05,31,07,53,14.80
2016,05,31,07,54,14.80
2016,05,31,07,55,14.90
2016,05,31,07,56,15.00
2016,05,31,07,57,15.00
2016,05,31,07,58,15.10
2016,05,31,07,59,15.20
2016,05,31,08,00,15.20
2016,05,31,08,01,15.30
2016,05,31,08,02,15.30
2016,05,31,08,03,15.30
2016,05,31,08,04,15.30
2016,05,31,08,05,15.40
2016,05,31,08,06,15.50
2016,05,31,08,07,15.60
2016,05,31,08,08,15.70
2016,05,31,08,09,15.70
2016,05,31,08,10,15.80
2016,05,31,08,11,15.90
2016,05,31,08,12,15.90
2016,05,31,08,13,15.90
2016,05,31,08,14,16.00
2016,05,31,08,15,16.00
2016,05,31,08,16,16.10
2016,05,31,08,17,16.20
2016,05,31,08,18,16.30
2016,05,31,08,19,16.40
2016,05,31,08,20,16.40
2016,05,31,08,21,16.40
2016,05,31,08,22,16.50
2016,05,31,08,23,16.50
2016,05,31,08,24,16.60
2016,05,31,08,25,16.60
2016,05,31,08,26,16.70
2016,05,31,08,27,16.70
2016,05,31,08,28,16.70
2016,05,31,08,29,16.80
2016,05,31,08,30,16.80
2016,05,31,08,31,16.80
2016,05,31,08,32,16.80
2016,05,31,08,33,16.80
2016,05,31,08,34,16.90
2016,05,31,08,35,16.90
2016,05,31,08,36,17.00
2016,05,31,08,37,17.10
2016,05,31,08,38,17.20
2016,05,31,08,39,17.30
2016,05,31,08,40,17.40
2016,05,31,08,41,17.50
2016,05,31,08,42,17.50
2016,05,31,08,43,17.50
2016,05,31,08,44,17.50
2016,05,31,08,45,17.60
2016,05,31,08,46,17.60
2016,05,31,08,47,17.60
2016,05,31,08,48,17.60
2016,05,31,08,49,17.60
2016,05,31,08,50,17.60
2016,05,31,08,51,17.60
2016,05,31,08,52,17.60
2016,05,31,08,53,17.60
2016,05,31,08,54,17.60
2016,05,31,08,55,17.60
2016,05,31,08,56,17.60
2016,05,31,08,57,17.60
2016,05,31,08,58,17.70
2016,05,31,08,59,17.70
2016,05,31,09,00,17.70
2016,05,31,09,01,17.70
2016,05,31,09,02,17.80
2016,05,31,09,03,17.80
2016,05,31,09,04,17.90
2016,05,31,09,05,17.90
2016,05,31,09,06,18.00
2016,05,31,09,07,18.00
2016,05,31,09,08,18.10
2016,05,31,09,09,18.20
2016,05,31,09,10,18.20
2016,05,31,09,11,18.20
2016,05,31,09,12,18.30
2016,05,31,09,13,18.30
2016,05,31,09,14,18.40
2016,05,31,09,15,18.40
2016,05,31,09,16,18.40
2016,05,31,09,17,18.40
2016,05,31,09,18,18.40
2016,05,31,09,19,18.40
2016,05,31,09,20,18.50
2016,05,31,09,21,18.50
2016,05,31,09,22,18.60
2016,05,31,09,23,18.60
2016,05,31,09,24,18.60
2016,05,31,09,25,18.60
2016,05,31,09,26,18.70
2016,05,31,09,27,18.80
2016,05,31,09,28,18.80
2016,05,31,09,29,18.80
2016,05,31,09,30,18.90
2016,05,31,09,31,18.90
2016,05,31,09,32,18.90
2016,05,31,09,33,18.90
2016,05,31,09,34,19.00
2016,05,31,09,35,19.00
2016,05,31,09,36,19.10
2016,05,31,09,37,19.10
2016,05,31,09,38,19.00
2016,05,31,09,39,18.90
2016,05,31,09,40,18.80
2016,05,31,09,41,18.80
2016,05,31,09,42,18.90
2016,05,31,09,43,18.90
2016,05,31,09,44,18.90
2016,05,31,09,45,18.80
2016,05,31,09,46,18.80
2016,05,31,09,47,18.80
2016,05,31,09,48,18.70
2016,05,31,09,49,18.70
2016,05,31,09,50,18.70
2016,05,31,09,51,18.80
2016,05,31,09,52,18.90
2016,05,31,09,53,19.00
2016,05,31,09,54,19.10
2016,05,31,09,55,19.10
2016,05,31,09,56,19.20
2016,05,31,09,57,19.30
2016,05,31,09,58,19.40
2016,05,31,09,59,19.50
2016,05,31,10,00,19.50
2016,05,31,10,01,19.40
2016,05,31,10,02,19.30
2016,05,31,10,03,19.30
2016,05,31,10,04,19.30
2016,05,31,10,05,19.20
2016,05,31,10,06,19.20
2016,05,31,10,07,19.20
2016,05,31,10,08,19.30
2016,05,31,10,09,19.30
2016,05,31,10,10,19.30
2016,05,31,10,11,19.20
2016,05,31,10,12,19.20
2016,05,31,10,13,19.10
2016,05,31,10,14,19.00
2016,05,31,10,15,19.00
2016,05,31,10,16,19.00
2016,05,31,10,17,18.90
2016,05,31,10,18,18.90
2016,05,31,10,19,18.90
2016,05,31,10,20,18.80
2016,05,31,10,21,18.80
2016,05,31,10,22,18.80
2016,05,31,10,23,18.80
2016,05,31,10,24,18.80
2016,05,31,10,25,18.90
2016,05,31,10,26,18.90
2016,05,31,10,27,19.00
2016,05,31,10,28,19.00
2016,05,31,10,29,18.90
2016,05,31,10,30,18.90
2016,05,31,10,31,18.90
2016,05,31,10,32,19.00
2016,05,31,10,33,19.00
2016,05,31,10,34,19.10
2016,05,31,10,35,19.10
2016,05,31,10,36,19.10
2016,05,31,10,37,19.10
2016,05,31,10,38,19.10
2016,05,31,10,39,19.10
2016,05,31,10,40,19.20
2016,05,31,10,41,19.30
2016,05,31,10,42,19.30
2016,05,31,10,43,19.30
2016,05,31,10,44,19.40
2016,05,31,10,45,19.40
2016,05,31,10,46,19.40
2016,05,31,10,47,19.40
2016,05,31,10,48,19.50
2016,05,31,10,49,19.60
2016,05,31,10,50,19.60
2016,05,31,10,51,19.70
2016,05,31,10,52,19.70
2016,05,31,10,53,19.70
2016,05,31,10,54,19.60
2016,05,31,10,55,19.60
2016,05,31,10,56,19.50
2016,05,31,10,57,19.50
2016,05,31,10,58,19.60
2016,05,31,10,59,19.60
2016,05,31,11,00,19.70
2016,05,31,11,01,19.70
2016,05,31,11,02,19.80
2016,05,31,11,03,19.80
2016,05,31,11,04,19.80
2016,05,31,11,05,19.80
2016,05,31,11,06,19.90
2016,05,31,11,07,20.00
2016,05,31,11,08,20.10
2016,05,31,11,09,20.20
2016,05,31,11,10,20.20
2016,05,31,11,11,20.20
2016,05,31,11,12,20.30
2016,05,31,11,13,20.30
2016,05,31,11,14,20.30
2016,05,31,11,15,20.30
2016,05,31,11,16,20.20
2016,05,31,11,17,20.20
2016,05,31,11,18,20.20
2016,05,31,11,19,20.20
2016,05,31,11,20,20.20
2016,05,31,11,21,20.20
2016,05,31,11,22,20.30
2016,05,31,11,23,20.40
2016,05,31,11,24,20.50
2016,05,31,11,25,20.50
2016,05,31,11,26,20.50
2016,05,31,11,27,20.40
2016,05,31,11,28,20.40
2016,05,31,11,29,20.40
2016,05,31,11,30,20.50
2016,05,31,11,31,20.60
2016,05,31,11,32,20.60
2016,05,31,11,33,20.70
2016,05,31,11,34,20.70
2016,05,31,11,35,20.80
2016,05,31,11,36,20.90
2016,05,31,11,37,20.90
2016,05,31,11,38,20.90
2016,05,31,11,39,20.90
2016,05,31,11,40,20.90
2016,05,31,11,41,20.90
2016,05,31,11,42,20.90
2016,05,31,11,43,20.90
2016,05,31,11,44,20.80
2016,05,31,11,45,20.70
2016,05,31,11,46,20.70
2016,05,31,11,47,20.70
2016,05,31,11,48,20.70
2016,05,31,11,49,20.70
2016,05,31,11,50,20.70
2016,05,31,11,51,20.70
2016,05,31,11,52,20.70
2016,05,31,11,53,20.80
2016,05,31,11,54,21.00
2016,05,31,11,55,21.00
2016,05,31,11,56,21.00
2016,05,31,11,57,21.00
2016,05,31,11,58,21.00
2016,05,31,11,59,21.00
2016,05,31,12,00,21.00
2016,05,31,12,01,20.90
2016,05,31,12,02,20.90
2016,05,31,12,03,20.90
2016,05,31,12,04,21.00
2016,05,31,12,05,21.00
2016,05,31,12,06,20.90
2016,05,31,12,07,20.90
2016,05,31,12,08,20.80
2016,05,31,12,09,20.70
2016,05,31,12,10,20.70
2016,05,31,12,11,20.80
2016,05,31,12,12,20.80
2016,05,31,12,13,20.90
2016,05,31,12,14,21.00
2016,05,31,12,15,21.10
2016,05,31,12,16,21.20
2016,05,31,12,17,21.10
2016,05,31,12,18,21.10
2016,05,31,12,19,21.00
2016,05,31,12,20,20.90
2016,05,31,12,21,20.90
2016,05,31,12,22,20.90
2016,05,31,12,23,20.80
2016,05,31,12,24,20.80
2016,05,31,12,25,20.70
2016,05,31,12,26,20.80
2016,05,31,12,27,20.80
2016,05,31,12,28,20.90
2016,05,31,12,29,20.90
2016,05,31,12,30,21.00
2016,05,31,12,31,21.10
2016,05,31,12,32,21.10
2016,05,31,12,33,21.10
2016,05,31,12,34,21.10
2016,05,31,12,35,21.00
2016,05,31,12,36,21.00
2016,05,31,12,37,21.00
2016,05,31,12,38,20.90
2016,05,31,12,39,20.90
2016,05,31,12,40,20.90
2016,05,31,12,41,21.00
2016,05,31,12,42,21.00
2016,05,31,12,43,21.10
2016,05,31,12,44,21.10
2016,05,31,12,45,21.20
2016,05,31,12,46,21.20
2016,05,31,12,47,21.30
2016,05,31,12,48,21.30
2016,05,31,12,49,21.40
2016,05,31,12,50,21.50
2016,05,31,12,51,21.50
2016,05,31,12,52,21.50
2016,05,31,12,53,21.40
2016,05,31,12,54,21.40
2016,05,31,12,55,21.30
2016,05,31,12,56,21.30
2016,05,31,12,57,21.20
2016,05,31,12,58,21.20
2016,05,31,12,59,21.20
2016,05,31,13,00,21.20
2016,05,31,13,01,21.20
2016,05,31,13,02,21.20
2016,05,31,13,03,21.20
2016,05,31,13,04,21.20
2016,05,31,13,05,21.30
2016,05,31,13,06,21.30
2016,05,31,13,07,21.40
2016,05,31,13,08,21.30
2016,05,31,13,09,21.30
2016,05,31,13,10,21.30
2016,05,31,13,11,21.30
2016,05,31,13,12,21.30
2016,05,31,13,13,21.30
2016,05,31,13,14,21.30
2016,05,31,13,15,21.40
2016,05,31,13,16,21.40
2016,05,31,13,17,21.40
2016,05,31,13,18,21.60
2016,05,31,13,19,21.60
2016,05,31,13,20,21.60
2016,05,31,13,21,21.70
2016,05,31,13,22,21.70
2016,05,31,13,23,21.80
2016,05,31,13,24,21.90
2016,05,31,13,25,21.90
2016,05,31,13,26,21.90
2016,05,31,13,27,21.90
2016,05,31,13,28,22.00
2016,05,31,13,29,22.00
2016,05,31,13,30,22.10
2016,05,31,13,31,22.10
2016,05,31,13,32,22.20
2016,05,31,13,33,22.20
2016,05,31,13,34,22.20
2016,05,31,13,35,22.20
2016,05,31,13,36,22.20
2016,05,31,13,37,22.20
2016,05,31,13,38,22.20
2016,05,31,13,39,22.20
2016,05,31,13,40,22.30
2016,05,31,13,41,22.30
2016,05,31,13,42,22.30
2016,05,31,13,43,22.30
2016,05,31,13,44,22.30
2016,05,31,13,45,22.30
2016,05,31,13,46,22.30
2016,05,31,13,47,22.40
2016,05,31,13,48,22.40
2016,05,31,13,49,22.50
2016,05,31,13,50,22.50
2016,05,31,13,51,22.50
2016,05,31,13,52,22.40
2016,05,31,13,53,22.40
2016,05,31,13,54,22.40
2016,05,31,13,55,22.50
2016,05,31,13,56,22.50
2016,05,31,13,57,22.50
2016,05,31,13,58,22.50
2016,05,31,13,59,22.50
2016,05,31,14,00,22.50
2016,05,31,14,01,22.40
2016,05,31,14,02,22.30
2016,05,31,14,03,22.30
2016,05,31,14,04,22.30
2016,05,31,14,05,22.20
2016,05,31,14,06,22.20
2016,05,31,14,07,22.10
2016,05,31,14,08,22.10
2016,05,31,14,09,22.00
2016,05,31,14,10,22.00
2016,05,31,14,11,21.90
2016,05,31,14,12,21.90
2016,05,31,14,13,21.90
2016,05,31,14,14,21.90
2016,05,31,14,15,21.80
2016,05,31,14,16,21.70
2016,05,31,14,17,21.70
2016,05,31,14,18,21.60
2016,05,31,14,19,21.60
2016,05,31,14,20,21.60
2016,05,31,14,21,21.60
2016,05,31,14,22,21.70
2016,05,31,14,23,21.80
2016,05,31,14,24,21.70
2016,05,31,14,25,21.70
2016,05,31,14,26,21.60
2016,05,31,14,27,21.60
2016,05,31,14,28,21.70
2016,05,31,14,29,21.60
2016,05,31,14,30,21.60
2016,05,31,14,31,21.60
2016,05,31,14,32,21.50
2016,05,31,14,33,21.50
2016,05,31,14,34,21.40
2016,05,31,14,35,21.30
2016,05,31,14,36,21.20
2016,05,31,14,37,21.10
2016,05,31,14,38,21.00
2016,05,31,14,39,21.00
2016,05,31,14,40,21.00
2016,05,31,14,41,20.90
2016,05,31,14,42,20.90
2016,05,31,14,43,20.80
2016,05,31,14,44,20.80
2016,05,31,14,45,20.70
2016,05,31,14,46,20.70
2016,05,31,14,47,20.70
2016,05,31,14,48,20.70
2016,05,31,14,49,20.70
2016,05,31,14,50,20.70
2016,05,31,14,51,20.70
2016,05,31,14,52,20.70
2016,05,31,14,53,20.70
2016,05,31,14,54,20.60
2016,05,31,14,55,20.50
2016,05,31,14,56,20.50
2016,05,31,14,57,20.60
2016,05,31,14,58,20.60
2016,05,31,14,59,20.70
2016,05,31,15,00,20.60
2016,05,31,15,01,20.50
2016,05,31,15,02,20.30
2016,05,31,15,03,20.20
2016,05,31,15,04,20.10
2016,05,31,15,05,20.00
2016,05,31,15,06,19.80
2016,05,31,15,07,19.80
2016,05,31,15,08,19.70
2016,05,31,15,09,19.70
2016,05,31,15,10,19.70
2016,05,31,15,11,19.80
2016,05,31,15,12,19.80
2016,05,31,15,13,19.80
2016,05,31,15,14,19.70
2016,05,31,15,15,19.70
2016,05,31,15,16,19.70
2016,05,31,15,17,19.70
2016,05,31,15,18,19.70
2016,05,31,15,19,19.80
2016,05,31,15,20,19.90
2016,05,31,15,21,19.90
2016,05,31,15,22,19.80
2016,05,31,15,23,19.70
2016,05,31,15,24,19.60
2016,05,31,15,25,19.50
2016,05,31,15,26,19.40
2016,05,31,15,27,19.30
2016,05,31,15,28,19.40
2016,05,31,15,29,19.40
2016,05,31,15,30,19.50
2016,05,31,15,31,19.60
2016,05,31,15,32,19.70
2016,05,31,15,33,19.70
2016,05,31,15,34,19.80
2016,05,31,15,35,19.80
2016,05,31,15,36,19.90
2016,05,31,15,37,19.90
2016,05,31,15,38,20.00
2016,05,31,15,39,20.10
2016,05,31,15,40,20.10
2016,05,31,15,41,20.10
2016,05,31,15,42,20.10
2016,05,31,15,43,20.10
2016,05,31,15,44,20.10
2016,05,31,15,45,20.10
2016,05,31,15,46,20.00
2016,05,31,15,47,20.00
2016,05,31,15,48,20.00
2016,05,31,15,49,20.00
2016,05,31,15,50,20.00
2016,05,31,15,51,19.90
2016,05,31,15,52,19.90
2016,05,31,15,53,19.80
2016,05,31,15,54,19.80
2016,05,31,15,55,19.80
2016,05,31,15,56,19.80
2016,05,31,15,57,19.80
2016,05,31,15,58,19.70
2016,05,31,15,59,19.70
2016,05,31,16,00,19.60
2016,05,31,16,01,19.50
2016,05,31,16,02,19.40
2016,05,31,16,03,19.40
2016,05,31,16,04,19.30
2016,05,31,16,05,19.30
2016,05,31,16,06,19.20
2016,05,31,16,07,19.20
2016,05,31,16,08,19.10
2016,05,31,16,09,19.00
2016,05,31,16,10,18.90
2016,05,31,16,11,18.80
2016,05,31,16,12,18.80
2016,05,31,16,13,18.80
2016,05,31,16,14,18.80
2016,05,31,16,15,18.80
2016,05,31,16,16,18.90
2016,05,31,16,17,18.90
2016,05,31,16,18,18.90
2016,05,31,16,19,18.90
2016,05,31,16,20,19.00
2016,05,31,16,21,19.00
2016,05,31,16,22,19.10
2016,05,31,16,23,19.10
2016,05,31,16,24,19.10
2016,05,31,16,25,19.10
2016,05,31,16,26,19.20
2016,05,31,16,27,19.30
2016,05,31,16,28,19.40
2016,05,31,16,29,19.40
2016,05,31,16,30,19.50
2016,05,31,16,31,19.50
2016,05,31,16,32,19.50
2016,05,31,16,33,19.50
2016,05,31,16,34,19.60
2016,05,31,16,35,19.70
2016,05,31,16,36,19.80
2016,05,31,16,37,19.90
2016,05,31,16,38,20.00
2016,05,31,16,39,19.90
2016,05,31,16,40,19.90
2016,05,31,16,41,19.90
2016,05,31,16,42,19.90
2016,05,31,16,43,19.90
2016,05,31,16,44,19.90
2016,05,31,16,45,19.90
2016,05,31,16,46,19.90
2016,05,31,16,47,19.90
2016,05,31,16,48,19.90
2016,05,31,16,49,19.90
2016,05,31,16,50,20.00
2016,05,31,16,51,20.00
2016,05,31,16,52,20.10
2016,05,31,16,53,20.10
2016,05,31,16,54,20.10
2016,05,31,16,55,20.10
2016,05,31,16,56,20.10
2016,05,31,16,57,20.20
2016,05,31,16,58,20.20
2016,05,31,16,59,20.20
2016,05,31,17,00,20.20
2016,05,31,17,01,20.20
2016,05,31,17,02,20.20
2016,05,31,17,03,20.20
2016,05,31,17,04,20.20
2016,05,31,17,05,20.30
2016,05,31,17,06,20.30
2016,05,31,17,07,20.40
2016,05,31,17,08,20.50
2016,05,31,17,09,20.60
2016,05,31,17,10,20.60
2016,05,31,17,11,20.60
2016,05,31,17,12,20.60
2016,05,31,17,13,20.60
2016,05,31,17,14,20.60
2016,05,31,17,15,20.70
2016,05,31,17,16,20.70
2016,05,31,17,17,20.70
2016,05,31,17,18,20.70
2016,05,31,17,19,20.70